Location: Campo d�Arietto
(42.4469°N, 9.4813°E)
Time: 04:55:00
(UTC+00:00)

Daily predictions for brighter satellites

Satellite Brightness Start Highest point End
(mag) Time Altitude Azimuth Time Altitude Azimuth Time Altitude Azimuth
FALCON 9 R/B 4.2 02:47:53 35° SE 02:47:53 35° SE 02:58:05 10° E
CZ-4C R/B 3.4 03:43:05 49° SSW 03:43:05 49° SSW 03:49:23 10° SSE
Cosmos 1603 4.1 03:44:50 58° ESE 03:44:50 58° ESE 03:49:32 10° SSE
NOSS 2-1 (C) 4.4 04:01:26 76° WSW 04:01:32 76° SW 04:09:28 10° SSE
NOSS 2-1 (D) 4.4 04:05:00 72° WSW 04:05:11 72° WSW 04:13:07 10° SSE
Cosmos 1954 Rocket 4.5 04:10:30 48° S 04:10:30 48° S 04:14:23 10° S
Cosmos 2263 Rocket 2.0 04:12:52 76° NNW 04:12:52 76° NNW 04:18:12 10° NNE
Okean 1-7 3.4 04:15:49 58° SSE 04:15:49 58° SSE 04:19:25 10° SSE
GEOS 3 Rocket 4.1 04:10:18 10° ESE 04:15:14 53° NE 04:16:45 39° N
SKYMED 2 4.3 04:12:20 10° SSE 04:16:32 51° ENE 04:17:58 35° NNE
Cosmos 1634 Rocket 4.0 04:13:36 10° S 04:19:47 79° E 04:25:58 10° N
Meteor 1-20 Rocket 4.1 04:17:26 10° SSW 04:23:17 82° W 04:29:09 10° N
USA 234 3.1 04:21:16 10° NE 04:27:47 72° NW 04:30:18 40° WSW
Cosmos 1627 Rocket 4.4 04:25:40 10° N 04:31:58 86° W 04:38:19 10° S
Cosmos 1741 Rocket 4.1 04:30:25 30° N 04:33:02 75° ENE 04:38:14 10° SSE
FENGYUN 3A 4.3 04:28:26 10° NNE 04:33:43 56° E 04:38:59 10° S
Cosmos 2195 Rocket 4.4 04:29:07 10° N 04:35:27 75° W 04:41:44 10° S
Okean 1 3.1 04:37:13 83° NW 04:37:20 85° W 04:41:18 10° S
ATLAS CENTAUR R/B 4.0 04:36:32 10° N 04:38:27 13° NE 04:40:20 10° ENE
SJ-12 3.9 04:36:39 10° NNE 04:40:47 80° ESE 04:44:51 10° S
METEOR-M 4.4 04:38:27 10° NNE 04:43:49 71° ESE 04:49:08 10° S
Cosmos 1844 Rocket 4.0 04:39:22 10° S 04:44:32 40° ESE 04:49:43 10° NE
Cosmos 1452 Rocket 3.6 04:43:54 41° WSW 04:45:13 50° WNW 04:50:22 10° N
Cosmos 1092 Rocket 4.1 04:43:00 24° NNW 04:46:31 50° W 04:52:22 10° SSW
USA 116 4.5 04:42:20 10° SSE 04:46:51 69° ENE 04:51:53 10° N
Timation 1 Rocket 4.4 04:43:58 26° SW 04:47:12 54° WNW 04:53:03 10° NNE
Cosmos 2142 Rocket 4.4 04:42:05 10° S 04:48:29 82° W 04:54:54 10° N
Cosmos 44 3.0 04:46:02 17° SW 04:49:43 83° WNW 04:54:18 10° NNE
Cosmos 1850 Rocket 3.9 04:48:20 27° NNW 04:51:20 74° WSW 04:56:38 10° S
STARLINK 1050 4.2 04:53:25 33° SSW 04:53:25 33° SSW 04:56:21 10° SSE
CZ-4B R/B 3.8 04:47:36 10° NNE 04:53:11 61° ESE 04:58:46 10° S
Okean 3 3.8 04:49:22 10° N 04:53:32 63° E 04:57:42 10° SSE
Cosmos 371 Rocket 3.6 04:49:15 10° S 04:54:02 69° ESE 04:58:54 10° NNE
STARLINK 1055 4.3 04:56:37 31° SW 04:56:37 31° SW 04:59:37 10° SSE
Meteor 1-18 Rocket 4.2 04:54:06 16° NNW 04:58:25 56° W 05:03:51 10° S
STARLINK 1022 4.3 04:59:42 29° SW 04:59:42 29° SW 05:02:46 10° SSE
ALOS 2.1 04:55:17 10° N 04:59:58 78° WNW 05:04:38 10° SSW
PSLV R/B 4.2 04:58:02 10° N 05:01:57 43° WNW 05:05:51 10° SW
Orbus 7S? 2.3 05:02:26 58° SW 05:02:52 88° SE 05:05:21 10° NE
STARLINK 1042 4.4 05:02:55 28° SW 05:02:55 28° SW 05:06:02 10° SSE
Cosmos 1943 3.7 05:01:28 31° WNW 05:02:55 36° WSW 05:07:59 10° S
COSMO-SKYMED 1 2.8 05:00:22 10° S 05:04:32 47° W 05:06:31 27° NW
NOAA 6 4.1 04:59:27 10° NNE 05:04:36 78° ESE 05:09:44 10° S
STARLINK 1056 4.5 05:06:11 26° SW 05:06:18 26° SW 05:09:20 10° S
SL-23 DEB 3.8 05:09:59 38° NW 05:10:19 39° NNW 05:13:27 10° NE
NOSS 3-2 (A) 4.0 05:09:18 10° SSW 05:14:49 58° ESE 05:21:03 10° NE
Cosmos 2221 Rocket 3.7 05:13:27 12° NNW 05:17:23 53° W 05:21:41 10° S
Cosmos 1733 Rocket 2.9 05:14:33 10° S 05:18:52 86° W 05:23:12 10° N
Meteor 1-11 Rocket 4.1 05:13:59 10° S 05:19:41 70° E 05:25:33 10° NNE
MOS 1-B 4.5 05:15:23 10° N 05:20:55 49° WNW 05:26:26 10° SW
Cosmos 405 3.3 05:17:47 10° N 05:21:20 67° E 05:24:49 10° SSE
PAYLOAD B 4.3 05:18:44 10° N 05:24:08 57° WNW 05:29:32 10° SSW
USA 238 DEB 3.8 05:19:13 10° SSW 05:25:52 80° ESE 05:32:47 10° NE
Cosmos 1340 3.6 05:22:47 10° SW 05:25:57 25° WNW 05:29:08 10° NNW
USA 238 3.8 05:19:21 10° SSW 05:25:59 80° ESE 05:32:52 10° NE
Helios 1A Rocket 2.8 05:22:09 10° N 05:26:09 61° WNW 05:30:07 10° SSW
Cosmos 1346 Rocket 3.5 05:22:49 10° SW 05:26:12 29° WNW 05:29:37 10° NNW
Cosmos 2266 Rocket 4.1 05:21:00 10° N 05:27:14 78° E 05:33:19 10° S
Cosmos 1331 Rocket 3.9 05:23:16 10° SSW 05:28:22 65° WNW 05:33:33 10° NNE
Okean O Rocket 1.7 05:24:13 10° N 05:28:32 55° WNW 05:32:50 10° SSW
Cosmos 2180 Rocket 4.4 05:23:37 10° SSW 05:29:40 62° W 05:35:48 10° N
CENTAUR R/B 4.1 05:26:50 10° S 05:32:08 37° ESE 05:38:11 10° NE
Cosmos 1500 3.2 05:31:10 10° SSW 05:34:57 59° W 05:38:44 10° N
Cosmos 44 Rocket 4.0 05:32:42 10° SSW 05:37:30 58° ESE 05:42:14 10° NE
Meteor 1-5 Rocket 4.3 05:32:34 10° SSW 05:38:29 69° WNW 05:44:19 10° N
Cosmos 1515 4.3 05:35:06 11° NNW 05:38:30 34° W 05:41:59 10° SSW
Cosmos 1110 Rocket 4.3 05:38:28 10° SW 05:43:24 43° WNW 05:48:20 10° N
Meteor 2-4 Rocket 3.9 05:39:26 10° NNW 05:44:39 46° W 05:49:45 10° SSW
Cosmos 1674 Rocket 3.5 05:45:43 10° NNW 05:49:59 60° W 05:54:14 10° S
Okean-O 3.8 05:47:02 10° NNE 05:51:20 47° E 05:55:35 10° S
ADEOS Rocket 3.3 05:44:46 10° SSE 05:51:44 85° ENE 05:57:59 10° NNW
Cosmos 304 Rocket 3.7 05:47:52 10° SSW 05:52:38 74° WNW 05:57:26 10° NNE
Cosmos 2278 Rocket 4.1 05:47:46 10° SSE 05:52:50 34° ESE 05:57:53 10° NE
IRIDIUM 104 4.3 05:49:09 10° N 05:54:24 84° W 05:59:36 10° S
Cosmos 2263 Rocket 3.8 05:54:41 10° WNW 05:57:28 14° NW 06:00:22 10° NNW
CZ-2C R/B 4.1 05:55:15 10° SSE 05:59:57 73° ENE 06:04:44 10° N
Cosmos 1441 Rocket 4.2 05:57:12 10° S 06:01:03 52° E 06:04:54 10° NNE
Cosmos 1486 Rocket 4.2 05:57:16 10° NNW 06:02:36 80° ENE 06:07:50 10° SSE
IRIDIUM 114 4.3 05:58:18 10° N 06:03:31 69° W 06:08:40 10° S
Cosmos 1378 Rocket 3.7 06:03:15 10° NNW 06:07:35 54° W 06:11:54 10° S
USA 81 4.1 06:03:49 10° N 06:09:04 69° W 06:14:18 10° S
USA 234 4.1 06:04:33 10° NE 06:10:09 32° NNW 06:15:45 10° WNW
IRIDIUM 103 4.4 06:07:32 10° N 06:12:39 57° W 06:17:44 10° SSW
Envisat 3.2 06:10:26 10° NNE 06:15:33 79° ESE 06:20:37 10° S
NOSS 3-2 (C) 3.4 06:10:55 10° SW 06:16:40 82° NW 06:23:10 10° NE
Cosmos 1833 Rocket 3.9 06:11:31 10° N 06:16:48 39° ENE 06:22:03 10° SE
ATLAS 3B R/B 3.2 06:11:51 10° SSW 06:18:31 65° ESE 06:25:06 10° NE
